Weather History for Lewiston, ID

Change the Weather History Date:

Friday, October 14, 2011

  Actual Average Record
Temperature  
Mean Temperature 56 °F 52 °F  
Max Temperature 62 °F 64 °F 80 °F (1929)
Min Temperature 50 °F 41 °F 28 °F (1969)
Degree Days  
Heating Degree Days 9 13  
Month to date heating degree days 113 139  
Since 1 July heating degree days 137 253  
Cooling Degree Days 0 0  
Month to date cooling degree days 8 1  
Year to date cooling degree days 742 805  
Growing Degree Days 6 (Base 50)    
Moisture  
Dew Point 45 °F    
Average Humidity 66    
Maximum Humidity 80    
Minimum Humidity 52    
Precipitation  
Precipitation 0.01 in 0.03 in 0.37 in (1932)
Month to date precipitation 0.69 0.38  
Year to date precipitation 11.60 9.58  
Snow  
Snow 0.00 in 0.00 in 0.00 in (1995)
Month to date snowfall 0.0 0.0  
Since 1 July snowfall 0.0 0.0  
Since 1 September snowfall 0.0 0.0  
Snow Depth 0.00 in    
Sea Level Pressure  
Sea Level Pressure 29.99 in    
Wind  
Wind Speed 2 mph (South)    
Max Wind Speed 10 mph    
Max Gust Speed 12 mph    
Visibility 10 miles    
Events Rain    
T = Trace of Precipitation, MM = Missing Value Source: NWS Daily Summary

Daily Weather History Graph

Daily Weather History Graph

Search for Another Location

Airport:

Trip Planner

Search our weather history database for the weather conditions in past years. The results will help you decide how hot, cold, wet, or windy it might be!

Date:

Astronomy

Oct. 14, 2011 Rise Set
Actual Time 7:03 AM PDT 6:03 PM PDT
Civil Twilight 6:33 AM PDT 6:33 PM PDT
Nautical Twilight 5:58 AM PDT 7:08 PM PDT
Astronomical Twilight 5:23 AM PDT 7:43 PM PDT
Moon 7:07 PM PDT (10/14) 9:49 AM PDT (10/14)
Length of Visible Light 12h 00m
Length of Day
10h 59m
Waning Gibbous, 94% of the Moon is Illuminated
Oct 14
Waning Gibbous
Oct 19
Last Quarter
Oct 26
New
Nov 2
First Quarter
Nov 10
Full

Hourly Weather History & Observations

Time (PDT) Temp. Dew Point Humidity Pressure Visibility Wind Dir Wind Speed Gust Speed Precip Events Conditions
12:56 AM 51.1 °F 45.0 °F 80% 30.07 in 10.0 mi Calm Calm - N/A   Overcast
1:56 AM 50.0 °F 45.0 °F 83% 30.06 in 10.0 mi SSE 3.5 mph - N/A   Overcast
2:56 AM 50.0 °F 45.0 °F 83% 30.05 in 10.0 mi Calm Calm - N/A   Overcast
3:56 AM 50.0 °F 45.0 °F 83% 30.04 in 10.0 mi Calm Calm - N/A   Overcast
4:56 AM 51.1 °F 44.1 °F 77% 30.03 in 10.0 mi Calm Calm - N/A   Overcast
5:56 AM 50.0 °F 44.1 °F 80% 30.04 in 10.0 mi East 4.6 mph - N/A   Overcast
6:56 AM 50.0 °F 45.0 °F 83% 30.04 in 10.0 mi Calm Calm - N/A   Overcast
7:56 AM 50.0 °F 45.0 °F 83% 30.03 in 10.0 mi ESE 4.6 mph - N/A   Overcast
8:56 AM 52.0 °F 45.0 °F 77% 30.03 in 10.0 mi East 4.6 mph - N/A   Overcast
9:56 AM 54.0 °F 44.1 °F 69% 30.03 in 10.0 mi East 5.8 mph - N/A   Overcast
10:56 AM 55.0 °F 44.1 °F 67% 30.02 in 10.0 mi Calm Calm - N/A   Overcast
11:56 AM 57.0 °F 45.0 °F 64% 30.01 in 10.0 mi Calm Calm - N/A   Overcast
12:56 PM 60.1 °F 45.0 °F 57% 29.98 in 10.0 mi Calm Calm - N/A   Overcast
1:56 PM 59.0 °F 45.0 °F 60% 29.98 in 10.0 mi Calm Calm - N/A   Overcast
2:56 PM 61.0 °F 45.0 °F 56% 29.96 in 10.0 mi Calm Calm - N/A   Mostly Cloudy
3:56 PM 62.1 °F 45.0 °F 53% 29.95 in 10.0 mi NNW 3.5 mph - N/A   Overcast
4:56 PM 61.0 °F 44.1 °F 54% 29.95 in 10.0 mi West 3.5 mph - N/A   Overcast
5:56 PM 60.1 °F 45.0 °F 57% 29.94 in 10.0 mi Calm Calm - N/A   Mostly Cloudy
6:56 PM 60.1 °F 45.0 °F 57% 29.94 in 10.0 mi Calm Calm - N/A   Overcast
7:56 PM 57.9 °F 46.0 °F 65% 29.94 in 10.0 mi NNW 5.8 mph - 0.00 in   Overcast
8:56 PM 55.0 °F 46.9 °F 74% 29.95 in 10.0 mi Calm Calm - 0.00 in   Overcast
9:56 PM 55.0 °F 45.0 °F 69% 29.94 in 10.0 mi West 3.5 mph - N/A   Overcast
10:56 PM 54.0 °F 44.1 °F 69% 29.95 in 8.0 mi West 5.8 mph - N/A   Overcast
11:56 PM 53.1 °F 46.0 °F 77% 29.94 in 10.0 mi SSW 4.6 mph - 0.00 in Rain Light Rain